Lid_Strength_Index
1 1 2 2 2 2 2 2 2 2 2 2 2 3 3 3 3 3 3 1 -1 -1 -2 -2 -2 -1 -1 -1 -1 -1 -1 -1 -1 -1 -1 -1 -1 -1 -1 -1 -1 -1 -2
0 1 2 2 2 2 2 2 2 2 2 2 2 2 1 1 2 3 3 3 1 -0 -1 -2 -2 -2 -2 -1 -1 -1 -1 -1 -1 -1 -1 -1 -1 -1 -1 -2 -1 -1 -2
0 1 1 2 1 1 2 2 1 2 1 2 1 2 2 2 2 2 2 2 2 2 1 -0 -1 -1 -1 -2 -1 -1 -1 -1 -1 -1 -1 -1 -1 -1 -1 -1 -1 -1 -1
1 1 1 2 1 1 1 2 2 2 3 3 3 3 3 2 2 2 2 2 2 1 1 0 -0 -1 -1 -2 -2 -2 -1 -1 -1 -1 -1 -1 -1 -1 -1 -1 -1 -1 -1
1 1 1 2 2 2 2 3 3 3 4 4 4 4 4 4 2 1 0 1 1 0 0 0 0 0 -1 -1 -2 -2 -2 -2 -1 -1 -1 -1 -1 -1 -1 -1 -1 -1 -1
1 1 2 2 2 2 3 3 3 3 3 4 3 4 4 2 2 2 2 1 2 1 1 0 1 1 1 -1 -1 -1 -2 -2 -2 -2 -1 -1 -1 -1 -1 -1 -1 -1 -0
1 2 2 2 2 2 2 2 3 4 5 7 8 8 6 6 5 3 3 3 3 2 2 2 2 2 1 0 -1 -2 -2 -2 -2 -2 -2 -1 -1 -1 -1 -1 -1 -1 -1
1 1 2 2 2 5 5 5 7 8 8 8 8 8 10 8 8 7 7 7 6 5 4 3 3 3 3 2 2 -0 -2 -2 -2 -2 -2 -1 -1 -1 -1 -1 -1 -0 -1
1 1 3 4 5 8 8 9 9 9 9 8 8 9 10 11 9 9 8 7 8 8 8 7 6 5 5 4 3 2 1 0 -1 -2 -2 -1 -1 -1 -1 -1 -1 -1 -1
5 6 7 8 8 9 9 9 8 9 8 10 9 8 9 10 11 12 10 9 7 8 8 7 7 6 6 5 4 3 3 3 2 -0 -1 -1 -1 -2 -1 -1 -1 -1 -1
7 7 8 8 8 8 9 9 9 7 8 8 8 9 10 10 10 11 12 12 8 8 8 8 7 7 7 6 6 4 4 4 4 2 1 -1 -1 -1 -1 -1 -1 -2 -2
8 8 8 8 8 8 9 8 8 9 8 8 7 9 9 10 10 11 11 10 11 10 9 9 8 8 7 7 5 5 5 6 5 4 2 0 -1 -1 -1 -1 -1 -2 -1
9 9 8 8 9 9 8 7 8 8 8 9 8 9 9 9 9 10 10 11 12 11 11 10 9 8 7 7 7 5 5 6 6 5 3 1 -1 -1 -1 -1 -1 -1 -1
9 9 9 9 9 8 8 8 9 9 8 10 11 10 10 10 10 11 12 13 15 14 13 13 10 8 8 8 7 6 7 7 7 5 3 2 1 0 -0 -1 -1 -1 -1
9 9 9 9 9 9 9 10 9 9 11 11 11 11 11 11 12 12 12 12 13 16 16 14 13 10 10 9 8 8 9 7 6 5 4 4 3 3 1 0 -0 -0 -1
8 9 9 9 10 9 10 9 11 11 11 11 11 12 12 13 13 12 13 13 14 14 16 13 12 11 10 10 9 10 9 7 6 6 6 6 5 4 4 3 1 0 0
10 9 10 9 10 10 10 12 11 11 12 12 12 13 13 14 14 14 14 14 14 13 14 13 11 11 11 11 10 9 9 8 7 7 7 6 6 6 6 5 4 3 2
9 10 10 9 10 11 11 12 12 12 12 13 14 14 14 14 15 14 13 13 12 12 13 14 12 12 11 10 10 9 8 8 8 7 7 7 7 6 7 6 6 5 4
10 10 11 11 11 12 12 12 12 13 13 14 14 14 14 14 14 13 13 12 12 12 12 14 14 12 12 11 10 9 9 9 8 7 7 7 7 6 6 6 6 6 5
11 12 12 12 12 12 12 12 13 14 15 14 14 14 14 13 14 13 12 13 13 13 13 14 14 14 13 11 10 11 11 10 10 8 7 7 6 5 6 6 6 6 5
12 12 12 13 13 13 13 13 14 15 15 15 14 14 13 13 12 12 12 13 13 14 14 14 14 14 13 12 13 12 12 11 10 9 9 9 8 6 6 6 5 5 4
13 13 14 14 14 13 12 13 14 15 15 15 15 13 13 13 13 12 12 12 13 14 14 14 14 14 13 12 12 12 12 12 12 10 11 11 10 9 7 6 6 6 5
14 15 15 15 15 14 13 13 14 15 15 15 15 14 14 14 13 13 13 13 12 12 12 13 14 13 12 12 13 13 12 11 12 12 11 12 11 11 9 7 6 6 6
16 15 15 16 15 15 13 13 14 14 14 15 14 15 15 14 13 12 12 13 12 12 11 11 11 10 10 11 12 11 10 12 12 12 11 13 11 12 10 8 6 6 6
15 15 15 15 15 15 13 13 14 15 15 15 15 15 13 13 12 11 13 13 13 12 11 10 9 9 9 10 10 12 12 12 14 13 11 12 12 12 12 11 9 7 8
15 15 15 15 14 15 13 13 14 15 15 15 15 14 13 13 12 11 12 13 13 12 11 11 11 11 11 11 10 11 11 12 13 13 11 12 12 12 14 12 11 10 10